Location: Engelmannsreuth
(49.8125°N, 11.6497°E)
Time: 08:11:38
(UTC+00:00)

Cosmos 1238 Rocket - Pass Details

Date: 17 February 2020
Orbit: 374 x 1032 km, 83.0° (Epoch: 30 March)

Event Time Altitude Azimuth Distance (km) Brightness Sun altitude
Rises 04:29:33 0° 352° (N) 3,765 7.0 -18.6°
Reaches altitude 10° 04:32:18 10° 356° (N) 2,767 6.4 -18.2°
Maximum altitude 04:38:38 60° 76° (ENE) 1,039 4.4 -17.1°
Drops below altitude 10° 04:44:06 10° 156° (SSE) 2,395 6.4 -16.2°
Sets 04:46:19 0° 160° (SSE) 3,226 7.0 -15.9°
